Retour au catalogue

STARLINK-33944

ActifCommunicationsVLEO
NORAD 64209·PAYLOAD·🇺🇸 United States

Lancé May 31, 2025 depuis Vandenberg Space Force Base

Loading…

Prochains Passages (prochaines 24 heures)

TLE

FraisSource: CelesTrak SupGP

Époque: Sep 15, 2026, 03:23 UTC

1 64209C 25117G   26258.14145833 -.00044472  00000+0 -13140-2 0  2580
2 64209  53.1588 238.7526 0001355  83.8051 288.5019 15.34411810    17

Suivez STARLINK-33944 en temps réel avec AllMySat

Download on the App Store